Location: The Saddle
(36.8333°N, 80.3417°W)
Time: 05:04:46
(UTC-04:00)

Tiros 1 - Pass Details

Date: 26 January 2022
Orbit: 630 x 663 km, 48.4° (Epoch: 29 May)

Event Time Altitude Azimuth Distance (km) Brightness Sun altitude
Exits shadow 04:16:41 14° 106° (ESE) 1,789 10.0 -38.3°
Drops below altitude 10° 04:17:21 10° 108° (ESE) 2,036 10.3 -38.1°
Sets 04:19:43 0° 113° (ESE) 2,938 11.3 -37.7°
